Temp
8 8 8 7 7 7 7 7 7 6 6 6 6 6 6 6 6 6 6 6 6 5 5 5 5 5 4 4 4 4 4 3 3 3 3 2 2 2 2 2 1 1 1 1 1 1 0 0 0 -0 -0 -0 -1 -1 -1 -1 -1 -1 -0 -0 -0 -0 0 0 0 0 0 -0 -0
8 7 7 7 7 7 7 7 6 6 6 6 6 6 6 5 5 5 5 5 5 5 5 4 4 4 4 3 3 3 3 3 2 2 2 2 2 1 1 1 1 1 0 0 0 0 0 -0 -0 -0 -1 -1 -1 -1 -1 -1 -0 -0 -0 -0 -0 -0 -0 -0 -0 -0 -1 -1 -1
7 7 7 7 7 7 7 6 6 6 6 6 5 5 5 5 5 5 5 5 5 4 4 4 3 3 3 3 3 3 2 2 2 2 1 1 1 1 1 0 0 0 0 0 -0 -0 -0 -0 -1 -1 -1 -1 -0 -0 -0 -0 -0 -0 -1 -1 -1 -1 -2 -1 -1 -1 -1 -1 -2
7 7 7 7 7 6 6 6 6 6 5 5 5 5 5 5 5 5 5 4 4 4 3 3 3 3 2 2 2 2 2 2 2 1 1 1 1 0 0 0 -0 -0 -0 -0 -0 -0 -0 -0 -0 -0 -0 -0 -0 -0 -0 -1 -1 -1 -2 -2 -2 -2 -2 -2 -2 -2 -2 -2 -2
7 7 7 6 6 6 6 6 5 5 5 5 5 5 5 4 4 4 4 4 3 3 3 3 3 2 2 2 2 2 1 1 1 1 1 1 0 0 0 -0 0 0 0 0 0 0 0 0 0 0 0 0 -0 -0 -1 -1 -2 -2 -2 -2 -3 -3 -3 -3 -3 -3 -3 -3 -3
7 6 6 6 6 5 5 5 5 5 5 5 5 4 4 4 4 4 3 3 3 3 3 3 2 2 2 2 1 1 1 1 1 1 0 0 0 0 0 0 0 0 0 0 0 0 0 0 0 0 0 -0 -0 -1 -1 -2 -2 -2 -2 -3 -3 -3 -3 -3 -3 -3 -3 -3 -3
6 6 6 5 5 5 5 5 5 5 5 4 4 4 4 4 3 3 3 3 3 3 3 3 2 2 2 1 1 1 1 1 1 0 0 0 0 0 0 0 0 0 0 0 0 0 0 0 0 -0 -0 -1 -1 -1 -2 -2 -2 -2 -2 -3 -3 -3 -3 -3 -3 -3 -3 -3 -3
6 6 5 5 5 5 5 5 5 4 4 4 4 4 3 3 3 3 3 3 3 3 2 2 2 1 1 1 1 1 1 1 1 1 1 1 1 1 1 1 1 0 0 0 -0 -0 -0 -0 -0 -1 -1 -1 -1 -2 -2 -2 -2 -2 -3 -3 -3 -3 -3 -3 -3 -3 -3 -3 -3
6 5 5 5 5 5 5 4 4 4 4 4 3 3 3 3 3 3 3 3 3 2 2 2 1 1 1 1 1 1 1 1 1 1 1 1 1 1 1 1 1 0 0 -0 -0 -1 -1 -1 -1 -1 -2 -2 -2 -2 -2 -2 -2 -2 -3 -3 -3 -3 -3 -3 -3 -3 -3 -3 -3
5 5 5 5 5 4 4 4 4 4 3 3 3 3 3 3 3 3 3 3 2 2 1 1 1 1 1 1 1 1 1 1 1 1 1 1 1 1 1 1 0 0 -0 -1 -1 -1 -1 -2 -2 -2 -2 -2 -2 -2 -2 -2 -2 -2 -2 -3 -3 -3 -3 -3 -3 -3 -3 -3 -3
5 5 5 4 4 4 4 4 4 3 3 3 3 3 3 3 3 3 2 2 2 1 1 1 1 1 1 1 1 1 1 1 1 1 1 1 1 1 1 0 0 -0 -1 -1 -2 -2 -2 -2 -2 -2 -2 -2 -2 -2 -2 -2 -2 -2 -3 -3 -3 -3 -3 -3 -3 -3 -3 -3 -3
5 5 4 4 4 4 4 4 3 3 3 3 3 3 3 2 2 2 2 2 1 1 1 1 1 1 1 1 1 1 1 1 1 1 1 1 0 0 0 -0 -1 -1 -1 -2 -2 -2 -2 -2 -2 -2 -2 -2 -2 -2 -2 -2 -2 -3 -3 -3 -3 -3 -3 -3 -3 -3 -3 -3 -3
5 4 4 4 4 4 3 3 3 3 3 3 3 2 2 2 2 2 2 2 1 1 1 1 1 1 1 1 1 1 1 1 1 1 0 0 -0 -0 -1 -1 -1 -2 -2 -2 -2 -2 -2 -2 -2 -2 -2 -2 -2 -2 -2 -2 -3 -3 -3 -3 -3 -3 -3 -3 -3 -3 -3 -3 -4
4 4 4 4 4 3 3 3 3 3 3 3 2 2 2 2 2 2 2 2 2 1 1 1 1 1 1 1 0 0 0 0 0 0 -0 -0 -1 -1 -1 -1 -1 -2 -2 -2 -2 -2 -2 -2 -2 -2 -2 -2 -2 -2 -2 -3 -3 -3 -3 -3 -3 -3 -3 -3 -3 -3 -4 -4 -4
4 4 4 4 3 3 3 3 3 3 2 2 2 2 2 2 2 2 2 2 2 1 1 1 1 1 0 0 0 0 -0 -0 -0 -0 -1 -1 -1 -1 -1 -1 -1 -2 -2 -2 -2 -2 -2 -2 -2 -2 -2 -2 -2 -2 -2 -3 -3 -3 -3 -3 -3 -3 -3 -3 -4 -4 -4 -4 -4
4 4 4 3 3 3 3 3 2 2 2 2 2 2 2 2 2 2 2 1 1 1 1 1 1 0 0 -0 -0 -0 -0 -1 -1 -1 -1 -1 -1 -1 -1 -2 -2 -2 -2 -2 -2 -2 -2 -2 -2 -2 -2 -2 -2 -2 -3 -3 -3 -3 -3 -3 -3 -3 -3 -4 -4 -4 -4 -4 -4
4 4 3 3 3 3 3 2 2 2 2 2 2 2 2 2 2 1 1 1 1 1 1 0 0 -0 -0 -1 -1 -1 -1 -1 -1 -1 -1 -1 -1 -2 -2 -2 -2 -2 -2 -2 -2 -2 -2 -2 -2 -2 -2 -3 -3 -3 -3 -3 -3 -3 -3 -3 -3 -4 -4 -4 -4 -4 -4 -4 -4
3 3 3 3 3 3 2 2 2 2 2 2 2 1 1 1 1 1 1 1 1 0 0 -0 -0 -0 -1 -1 -1 -1 -1 -1 -1 -1 -2 -2 -2 -2 -2 -2 -2 -2 -2 -2 -2 -2 -2 -2 -3 -3 -3 -3 -3 -3 -3 -3 -3 -3 -4 -4 -4 -4 -4 -4 -4 -4 -4 -4 -4
3 3 3 3 3 2 2 2 2 2 2 2 1 1 1 1 1 0 0 0 0 0 -0 -0 -1 -1 -1 -1 -1 -1 -1 -2 -2 -2 -2 -2 -2 -2 -2 -2 -2 -2 -2 -2 -2 -3 -3 -3 -3 -3 -3 -3 -3 -3 -3 -4 -4 -4 -4 -4 -4 -4 -4 -4 -4 -4 -4 -4 -4
3 3 3 3 3 2 2 2 2 2 2 1 1 1 1 0 0 -0 -0 -0 -0 -0 -1 -1 -1 -1 -1 -1 -1 -1 -2 -2 -2 -2 -2 -2 -2 -2 -2 -2 -2 -2 -3 -3 -3 -3 -3 -3 -3 -3 -3 -3 -3 -4 -4 -4 -4 -4 -4 -4 -4 -4 -4 -4 -4 -4 -4 -5 -5
3 3 3 3 2 2 2 2 2 2 1 1 1 0 0 -0 -0 -1 -1 -1 -1 -1 -1 -1 -1 -1 -1 -1 -1 -2 -2 -2 -2 -2 -2 -2 -2 -2 -2 -2 -3 -3 -3 -3 -3 -3 -3 -3 -3 -3 -3 -3 -4 -4 -4 -4 -4 -4 -4 -4 -4 -4 -4 -4 -4 -4 -5 -5 -5
3 3 2 2 2 2 2 2 1 1 1 1 0 -0 -0 -1 -1 -1 -1 -1 -1 -1 -1 -1 -1 -1 -1 -1 -2 -2 -2 -2 -2 -2 -2 -3 -3 -3 -3 -3 -3 -3 -3 -3 -3 -3 -3 -3 -3 -3 -4 -4 -4 -4 -4 -4 -4 -4 -4 -4 -4 -4 -4 -4 -5 -5 -5 -5 -5
2 2 2 2 2 2 2 1 1 1 0 0 -0 -1 -1 -1 -1 -2 -2 -2 -2 -1 -1 -1 -1 -1 -2 -2 -2 -2 -2 -2 -2 -2 -3 -3 -3 -3 -3 -3 -3 -3 -3 -3 -3 -3 -3 -3 -4 -4 -4 -4 -4 -4 -4 -4 -4 -4 -4 -4 -4 -5 -5 -5 -5 -5 -5 -5 -5
2 2 2 2 2 2 1 1 1 0 -0 -0 -1 -1 -1 -2 -2 -2 -2 -2 -2 -1 -1 -2 -2 -2 -2 -2 -2 -2 -2 -2 -2 -3 -3 -3 -3 -3 -3 -3 -3 -3 -3 -3 -3 -3 -3 -4 -4 -4 -4 -4 -4 -4 -4 -4 -4 -5 -5 -5 -5 -5 -5 -5 -5 -5 -5 -5 -5
2 2 2 2 1 1 1 1 0 -0 -0 -1 -1 -1 -2 -2 -2 -2 -2 -2 -2 -2 -2 -2 -2 -2 -2 -2 -2 -2 -2 -3 -3 -3 -3 -3 -3 -3 -3 -3 -3 -3 -3 -3 -3 -4 -4 -4 -4 -4 -4 -4 -4 -4 -4 -5 -5 -5 -5 -5 -5 -5 -5 -5 -5 -5 -5 -6 -6
2 1 1 1 1 1 0 0 -0 -1 -1 -1 -1 -2 -2 -2 -2 -2 -2 -2 -2 -2 -2 -2 -2 -2 -2 -2 -2 -3 -3 -3 -3 -3 -3 -3 -3 -3 -3 -3 -3 -4 -4 -4 -4 -4 -4 -4 -4 -4 -4 -4 -4 -5 -5 -5 -5 -5 -5 -5 -5 -5 -6 -6 -6 -6 -6 -6 -6
1 1 1 0 0 -0 -0 -1 -1 -1 -1 -1 -2 -2 -2 -2 -2 -2 -2 -2 -2 -2 -2 -2 -2 -2 -3 -3 -3 -3 -3 -3 -3 -3 -3 -4 -4 -4 -4 -4 -4 -4 -4 -4 -4 -4 -4 -4 -4 -4 -4 -5 -5 -5 -5 -5 -5 -5 -6 -6 -6 -6 -6 -6 -6 -6 -6 -6 -7
1 1 0 -0 -1 -1 -1 -1 -1 -1 -2 -2 -2 -2 -2 -2 -2 -2 -2 -2 -2 -2 -2 -2 -3 -3 -3 -3 -3 -3 -3 -3 -3 -3 -4 -4 -4 -4 -4 -4 -4 -4 -4 -4 -4 -4 -4 -4 -4 -4 -5 -5 -5 -5 -5 -5 -6 -6 -6 -6 -6 -6 -6 -7 -7 -7 -7 -7 -7
1 0 -0 -0 -1 -1 -1 -1 -2 -2 -2 -2 -2 -2 -2 -2 -2 -2 -2 -2 -2 -2 -3 -3 -3 -3 -3 -3 -3 -3 -3 -4 -4 -4 -4 -4 -4 -4 -4 -4 -4 -4 -4 -4 -4 -4 -4 -4 -4 -5 -5 -5 -5 -5 -6 -6 -6 -6 -6 -6 -6 -7 -7 -7 -7 -7 -7 -7 -7
0 -0 -0 -1 -1 -1 -2 -2 -2 -2 -2 -2 -2 -2 -2 -2 -2 -2 -3 -3 -3 -3 -3 -4 -4 -4 -4 -4 -4 -4 -4 -4 -4 -4 -4 -4 -4 -4 -4 -4 -4 -4 -4 -4 -4 -4 -4 -5 -5 -5 -5 -5 -6 -6 -6 -6 -6 -6 -6 -7 -7 -7 -7 -7 -7 -7 -7 -7 -7
-0 -0 -0 -1 -1 -2 -2 -2 -2 -2 -2 -2 -2 -2 -3 -3 -3 -3 -3 -4 -4 -4 -4 -4 -4 -4 -4 -4 -4 -4 -4 -4 -4 -4 -4 -4 -4 -4 -4 -4 -4 -4 -4 -4 -5 -5 -5 -5 -5 -5 -6 -6 -6 -6 -6 -6 -7 -7 -7 -7 -7 -7 -7 -7 -7 -7 -7 -7 -8
-1 -1 -1 -1 -1 -2 -2 -2 -3 -3 -3 -3 -3 -3 -3 -3 -3 -4 -4 -4 -4 -4 -4 -4 -4 -4 -4 -4 -4 -5 -5 -5 -5 -5 -5 -5 -5 -5 -5 -5 -5 -5 -5 -5 -5 -5 -5 -5 -6 -6 -6 -6 -6 -6 -7 -7 -7 -7 -7 -7 -7 -7 -7 -7 -8 -8 -8 -8 -8
-1 -1 -1 -2 -2 -2 -3 -3 -3 -3 -3 -3 -3 -3 -3 -4 -4 -4 -4 -4 -4 -4 -4 -4 -4 -5 -5 -5 -5 -5 -5 -5 -5 -5 -5 -5 -5 -5 -5 -5 -5 -5 -5 -5 -5 -5 -6 -6 -6 -6 -6 -6 -7 -7 -7 -7 -7 -7 -7 -7 -7 -7 -8 -8 -8 -8 -8 -8 -8
-2 -2 -2 -2 -3 -3 -3 -3 -3 -3 -3 -3 -3 -4 -4 -4 -4 -4 -4 -4 -4 -4 -4 -5 -5 -5 -5 -5 -5 -5 -5 -5 -5 -5 -5 -5 -5 -5 -5 -5 -5 -6 -6 -6 -6 -6 -6 -6 -6 -6 -7 -7 -7 -7 -7 -7 -7 -7 -7 -7 -8 -8 -8 -8 -8 -8 -9 -9 -9
-2 -2 -2 -2 -2 -2 -3 -3 -3 -3 -3 -4 -4 -4 -4 -4 -4 -4 -4 -5 -5 -5 -5 -5 -5 -5 -5 -5 -5 -6 -6 -6 -6 -6 -6 -6 -6 -6 -6 -6 -6 -6 -6 -6 -6 -6 -6 -6 -7 -7 -7 -7 -7 -7 -7 -8 -8 -8 -8 -8 -8 -8 -8 -9 -9 -9 -9 -9 -9
-2 -2 -2 -2 -2 -3 -3 -3 -4 -4 -4 -4 -4 -4 -4 -4 -4 -5 -5 -5 -5 -5 -5 -5 -5 -5 -5 -6 -6 -6 -6 -6 -6 -6 -6 -6 -6 -6 -6 -6 -6 -6 -6 -6 -7 -7 -7 -7 -7 -7 -7 -7 -8 -8 -8 -8 -8 -8 -8 -8 -9 -9 -9 -9 -9 -9 -10 -10 -10
-2 -2 -2 -3 -3 -3 -4 -4 -4 -4 -4 -4 -4 -4 -4 -4 -4 -4 -5 -5 -5 -5 -5 -5 -5 -5 -6 -6 -6 -6 -6 -6 -6 -6 -6 -6 -6 -6 -6 -6 -6 -6 -7 -7 -7 -7 -7 -7 -7 -7 -8 -8 -8 -8 -8 -8 -8 -9 -9 -9 -9 -9 -10 -10 -10 -10 -10 -10 -10
-2 -3 -3 -3 -4 -4 -4 -4 -4 -4 -4 -4 -4 -4 -4 -4 -4 -5 -5 -5 -5 -5 -5 -5 -5 -5 -6 -6 -6 -6 -6 -6 -6 -6 -6 -6 -7 -7 -7 -7 -7 -7 -7 -7 -7 -7 -7 -7 -8 -8 -8 -8 -8 -8 -9 -9 -9 -9 -9 -10 -10 -10 -10 -10 -10 -10 -10 -10 -10
-3 -3 -3 -4 -4 -4 -4 -4 -4 -4 -4 -4 -4 -4 -4 -4 -5 -5 -5 -5 -5 -5 -5 -5 -5 -6 -6 -6 -6 -6 -6 -6 -7 -7 -7 -7 -7 -7 -7 -7 -7 -7 -7 -7 -7 -8 -8 -8 -8 -8 -8 -9 -9 -9 -9 -9 -10 -10 -10 -10 -10 -10 -10 -10 -10 -10 -10 -10 -10
-3 -3 -4 -4 -4 -4 -4 -4 -4 -4 -4 -4 -4 -4 -5 -5 -5 -5 -5 -5 -5 -5 -5 -5 -6 -6 -6 -6 -6 -6 -6 -6 -7 -7 -7 -7 -7 -7 -7 -7 -7 -7 -7 -7 -8 -8 -8 -8 -8 -8 -9 -9 -9 -9 -10 -10 -10 -10 -10 -10 -10 -10 -10 -10 -10 -10 -10 -10 -10
-3 -3 -4 -4 -4 -4 -4 -4 -4 -4 -4 -4 -5 -5 -5 -5 -5 -5 -5 -5 -5 -5 -6 -6 -6 -6 -6 -6 -6 -6 -6 -7 -7 -7 -7 -7 -7 -7 -7 -7 -8 -8 -8 -8 -8 -8 -8 -8 -8 -8 -9 -9 -9 -10 -10 -10 -10 -11 -10 -10 -10 -10 -10 -10 -10 -10 -11 -11 -11
Height
1511 1510 1508 1506 1504 1503 1501 1500 1498 1496 1494 1492 1491 1489 1487 1486 1485 1483 1481 1480 1478 1477 1476 1474 1473 1472 1471 1469 1469 1468 1467 1466 1466 1465 1465 1464 1464 1463 1463 1462 1462 1462 1462 1462 1462 1462 1462 1462 1463 1463 1463 1463 1464 1464 1464 1464 1464 1464 1465 1465 1465 1465 1466 1466 1466 1466 1466 1465 1465
1509 1507 1505 1504 1502 1501 1500 1498 1497 1495 1493 1491 1489 1488 1486 1485 1483 1482 1480 1479 1477 1476 1475 1473 1472 1471 1470 1469 1468 1467 1467 1466 1466 1465 1464 1464 1463 1463 1463 1463 1463 1463 1462 1462 1463 1463 1462 1462 1462 1462 1463 1463 1463 1463 1463 1463 1464 1464 1464 1464 1464 1464 1464 1464 1464 1464 1463 1463 1463
1506 1505 1503 1502 1501 1500 1499 1497 1496 1494 1492 1490 1488 1486 1485 1484 1482 1481 1479 1478 1477 1476 1474 1473 1472 1471 1470 1469 1468 1467 1466 1466 1465 1465 1465 1464 1464 1464 1464 1464 1464 1464 1463 1463 1463 1463 1463 1462 1462 1462 1462 1462 1462 1462 1462 1462 1462 1462 1462 1462 1462 1462 1462 1462 1462 1462 1462 1462 1462
1504 1503 1502 1501 1499 1498 1497 1496 1494 1492 1490 1488 1486 1485 1483 1482 1481 1480 1478 1477 1476 1475 1474 1473 1472 1471 1470 1469 1468 1467 1466 1466 1466 1465 1465 1465 1465 1465 1465 1465 1464 1464 1464 1464 1463 1463 1463 1462 1462 1462 1462 1462 1462 1461 1461 1461 1461 1461 1461 1461 1461 1461 1461 1461 1461 1461 1461 1461 1461
1503 1502 1501 1499 1498 1496 1495 1494 1492 1490 1488 1486 1485 1483 1482 1481 1480 1479 1478 1476 1476 1475 1474 1473 1472 1471 1469 1468 1468 1467 1466 1466 1466 1466 1466 1465 1465 1465 1464 1464 1464 1464 1463 1463 1463 1462 1462 1461 1461 1461 1461 1461 1461 1460 1460 1460 1459 1459 1459 1459 1460 1460 1460 1460 1460 1460 1460 1460 1460
1501 1500 1499 1497 1496 1495 1493 1491 1490 1488 1486 1485 1483 1482 1481 1480 1479 1478 1477 1476 1476 1475 1474 1472 1471 1470 1469 1468 1468 1467 1467 1466 1466 1465 1465 1465 1464 1464 1464 1463 1463 1463 1462 1462 1461 1461 1461 1460 1460 1460 1460 1459 1459 1458 1458 1458 1458 1458 1458 1458 1458 1458 1458 1458 1458 1458 1458 1458 1458
1500 1498 1497 1495 1494 1492 1491 1490 1488 1486 1485 1483 1482 1481 1480 1479 1478 1477 1477 1476 1475 1474 1473 1471 1471 1470 1469 1469 1468 1467 1467 1466 1466 1465 1465 1464 1464 1464 1463 1463 1462 1462 1461 1461 1460 1460 1459 1459 1458 1458 1458 1457 1457 1457 1457 1457 1456 1456 1456 1456 1456 1456 1456 1456 1456 1456 1456 1456 1456
1498 1496 1495 1494 1492 1491 1489 1487 1486 1484 1483 1481 1481 1480 1479 1478 1477 1476 1476 1475 1474 1473 1472 1471 1471 1470 1469 1469 1468 1467 1466 1466 1465 1465 1464 1464 1463 1463 1462 1462 1461 1461 1460 1460 1459 1458 1458 1457 1457 1457 1456 1456 1456 1456 1456 1456 1456 1456 1456 1456 1456 1456 1456 1456 1456 1455 1455 1455 1455
1496 1495 1493 1491 1490 1488 1487 1486 1484 1483 1481 1480 1479 1478 1478 1477 1476 1476 1475 1474 1473 1472 1472 1471 1470 1470 1469 1469 1468 1467 1466 1466 1465 1464 1463 1463 1462 1462 1461 1461 1460 1459 1459 1458 1458 1457 1457 1457 1456 1456 1456 1456 1456 1456 1456 1456 1456 1456 1455 1455 1455 1455 1455 1455 1455 1455 1455 1454 1454
1495 1493 1491 1490 1488 1486 1485 1484 1482 1481 1480 1479 1478 1477 1476 1476 1475 1475 1474 1474 1473 1472 1471 1471 1470 1470 1469 1468 1468 1467 1466 1465 1464 1464 1463 1462 1461 1461 1460 1459 1459 1458 1457 1457 1457 1456 1456 1456 1456 1456 1456 1456 1456 1456 1456 1456 1455 1455 1455 1455 1455 1455 1455 1454 1454 1454 1454 1454 1453
1493 1491 1490 1488 1486 1484 1483 1482 1481 1480 1479 1478 1477 1476 1476 1475 1474 1474 1474 1473 1472 1472 1471 1471 1470 1469 1469 1468 1467 1466 1466 1465 1464 1463 1462 1461 1461 1460 1459 1458 1457 1457 1456 1456 1456 1456 1456 1456 1456 1456 1456 1456 1455 1455 1455 1455 1455 1455 1454 1454 1454 1454 1454 1454 1454 1453 1453 1452 1452
1491 1489 1487 1486 1484 1483 1481 1481 1480 1479 1478 1477 1476 1476 1475 1474 1474 1473 1473 1472 1472 1471 1471 1471 1470 1469 1468 1467 1467 1466 1465 1464 1463 1462 1461 1460 1459 1458 1458 1457 1456 1456 1456 1456 1456 1456 1455 1455 1455 1455 1455 1455 1454 1454 1454 1454 1454 1453 1453 1453 1453 1453 1453 1452 1452 1452 1451 1451 1451
1488 1487 1485 1484 1482 1481 1480 1479 1478 1477 1476 1476 1475 1475 1474 1474 1473 1473 1472 1472 1471 1471 1471 1470 1469 1468 1467 1467 1466 1465 1464 1463 1462 1461 1460 1459 1458 1457 1457 1456 1456 1456 1455 1455 1455 1455 1454 1454 1454 1454 1453 1453 1453 1453 1453 1453 1452 1452 1452 1451 1451 1451 1451 1451 1450 1450 1449 1449 1448
1486 1484 1482 1481 1480 1479 1478 1477 1476 1476 1475 1475 1474 1474 1474 1473 1473 1472 1471 1471 1471 1470 1470 1469 1468 1467 1467 1466 1465 1464 1463 1462 1461 1460 1459 1458 1458 1457 1456 1456 1456 1455 1455 1454 1454 1454 1453 1453 1453 1453 1452 1452 1452 1452 1451 1451 1451 1451 1450 1450 1450 1449 1449 1448 1448 1448 1447 1447 1446
1483 1482 1480 1478 1477 1476 1475 1475 1474 1474 1473 1473 1473 1473 1472 1472 1471 1471 1471 1470 1470 1469 1469 1468 1467 1466 1466 1465 1464 1463 1462 1461 1461 1460 1459 1458 1457 1457 1456 1456 1455 1454 1454 1453 1453 1453 1452 1452 1452 1451 1451 1451 1451 1451 1450 1450 1449 1449 1449 1448 1448 1447 1447 1446 1446 1446 1445 1445 1444
1481 1480 1478 1476 1475 1474 1473 1472 1472 1471 1471 1471 1471 1471 1471 1470 1470 1469 1469 1469 1468 1468 1467 1467 1466 1465 1465 1464 1463 1462 1461 1461 1460 1459 1458 1458 1457 1456 1456 1455 1454 1454 1453 1452 1452 1452 1451 1451 1451 1451 1450 1450 1449 1449 1448 1448 1448 1447 1447 1446 1446 1445 1445 1444 1444 1443 1443 1442 1441
1480 1478 1476 1474 1473 1472 1471 1470 1470 1470 1469 1469 1469 1469 1468 1468 1468 1467 1467 1467 1467 1466 1466 1465 1465 1464 1464 1463 1462 1461 1461 1460 1459 1458 1458 1457 1456 1456 1455 1454 1453 1453 1452 1451 1451 1451 1450 1450 1450 1449 1449 1448 1447 1447 1447 1446 1446 1445 1445 1444 1444 1443 1443 1442 1442 1441 1441 1440 1439
1479 1477 1475 1473 1472 1471 1469 1469 1468 1468 1467 1467 1467 1467 1466 1466 1466 1466 1465 1465 1465 1465 1464 1464 1463 1463 1462 1462 1461 1460 1460 1459 1458 1457 1457 1456 1456 1455 1454 1453 1452 1452 1451 1451 1450 1449 1449 1448 1448 1447 1447 1446 1446 1445 1445 1444 1444 1443 1443 1442 1442 1441 1441 1440 1440 1439 1438 1437 1437
1478 1476 1475 1473 1471 1470 1469 1468 1467 1466 1466 1466 1465 1465 1465 1465 1464 1464 1464 1463 1463 1463 1462 1462 1461 1461 1461 1460 1460 1459 1458 1458 1457 1456 1456 1455 1455 1454 1453 1452 1451 1451 1450 1449 1448 1448 1447 1447 1446 1446 1445 1445 1444 1443 1443 1442 1442 1441 1441 1440 1440 1439 1438 1438 1437 1436 1436 1435 1434
1478 1476 1474 1473 1471 1470 1469 1467 1466 1466 1465 1464 1464 1463 1463 1463 1463 1463 1462 1462 1461 1461 1461 1460 1460 1459 1459 1459 1458 1457 1457 1456 1456 1455 1455 1454 1453 1453 1452 1451 1450 1449 1449 1448 1447 1446 1446 1445 1444 1444 1443 1443 1442 1441 1441 1440 1440 1439 1438 1438 1437 1436 1436 1435 1435 1434 1433 1432 1432
1477 1476 1474 1472 1471 1470 1468 1467 1466 1465 1464 1463 1462 1462 1462 1461 1461 1461 1461 1461 1460 1460 1459 1459 1458 1458 1457 1457 1456 1456 1456 1455 1455 1454 1453 1453 1452 1451 1450 1450 1449 1448 1447 1446 1446 1445 1444 1443 1443 1442 1441 1441 1440 1440 1439 1438 1437 1437 1436 1436 1435 1434 1433 1433 1432 1431 1431 1430 1429
1476 1475 1473 1472 1471 1469 1468 1467 1466 1465 1464 1463 1462 1461 1460 1460 1460 1460 1459 1459 1458 1458 1457 1457 1456 1456 1456 1456 1455 1455 1454 1454 1453 1453 1452 1451 1451 1450 1449 1448 1447 1446 1446 1445 1444 1443 1442 1442 1441 1440 1440 1439 1438 1437 1437 1436 1435 1434 1434 1433 1432 1431 1431 1430 1430 1429 1428 1427 1426
1475 1474 1473 1472 1471 1469 1468 1467 1466 1465 1463 1462 1461 1460 1459 1458 1458 1458 1457 1457 1457 1456 1456 1455 1455 1454 1454 1454 1453 1453 1452 1452 1451 1451 1451 1450 1449 1448 1447 1446 1446 1445 1444 1443 1442 1441 1441 1440 1439 1438 1438 1437 1436 1435 1434 1434 1433 1432 1431 1430 1430 1429 1428 1428 1427 1426 1426 1425 1424
1474 1473 1472 1471 1470 1469 1468 1466 1465 1464 1463 1462 1461 1459 1458 1457 1457 1456 1456 1455 1455 1455 1454 1453 1453 1452 1452 1452 1451 1451 1451 1451 1450 1450 1449 1448 1447 1446 1446 1445 1444 1443 1442 1441 1441 1440 1439 1438 1437 1436 1436 1435 1434 1433 1432 1431 1430 1430 1429 1428 1427 1426 1426 1425 1424 1424 1423 1422 1421
1473 1472 1471 1470 1469 1468 1467 1466 1465 1464 1463 1461 1460 1459 1458 1456 1456 1455 1454 1454 1453 1453 1452 1451 1451 1451 1451 1450 1450 1450 1450 1449 1448 1448 1447 1446 1446 1445 1444 1443 1443 1442 1441 1440 1439 1438 1437 1436 1435 1434 1433 1432 1431 1431 1430 1429 1428 1427 1426 1425 1424 1423 1423 1422 1421 1421 1420 1419 1418
1471 1471 1470 1469 1468 1467 1466 1465 1464 1463 1462 1461 1460 1458 1457 1456 1455 1454 1453 1452 1452 1451 1451 1451 1450 1450 1449 1449 1449 1448 1448 1447 1446 1446 1445 1445 1444 1443 1443 1442 1441 1440 1440 1439 1438 1437 1436 1435 1434 1432 1431 1430 1429 1428 1427 1426 1426 1425 1424 1423 1422 1421 1420 1419 1418 1417 1417 1416 1415
1470 1470 1469 1468 1467 1466 1466 1464 1463 1462 1461 1459 1458 1457 1456 1455 1454 1453 1452 1451 1451 1450 1450 1450 1449 1449 1448 1447 1447 1446 1446 1445 1445 1444 1444 1443 1442 1442 1441 1441 1440 1439 1438 1437 1436 1435 1434 1433 1431 1431 1429 1428 1427 1426 1425 1424 1423 1422 1421 1421 1420 1418 1417 1416 1415 1414 1413 1413 1412
1469 1468 1467 1466 1466 1465 1463 1462 1461 1460 1459 1458 1457 1456 1455 1454 1453 1452 1451 1450 1449 1449 1448 1448 1447 1447 1446 1446 1445 1444 1444 1443 1443 1443 1442 1442 1441 1440 1440 1439 1438 1437 1436 1435 1434 1433 1431 1431 1429 1428 1427 1426 1425 1424 1423 1422 1421 1420 1419 1418 1417 1416 1415 1414 1412 1411 1410 1409 1408
1467 1466 1466 1465 1464 1462 1461 1460 1459 1458 1458 1457 1456 1455 1454 1453 1451 1451 1449 1448 1448 1447 1446 1446 1445 1445 1444 1443 1443 1442 1442 1442 1441 1441 1441 1440 1439 1439 1438 1437 1436 1435 1434 1433 1432 1431 1429 1428 1427 1426 1425 1424 1423 1421 1421 1420 1419 1418 1417 1416 1415 1413 1412 1411 1410 1408 1407 1406 1405
1466 1465 1464 1464 1462 1461 1460 1459 1458 1457 1456 1456 1454 1453 1452 1451 1450 1449 1448 1447 1446 1446 1445 1444 1444 1443 1443 1442 1442 1441 1441 1441 1440 1440 1439 1438 1437 1437 1436 1435 1434 1433 1432 1431 1430 1428 1427 1426 1425 1424 1423 1422 1421 1420 1418 1417 1416 1415 1414 1413 1412 1411 1410 1408 1407 1406 1405 1403 1402
1465 1464 1463 1462 1461 1460 1459 1458 1457 1456 1455 1454 1452 1451 1451 1450 1449 1448 1447 1446 1446 1445 1444 1444 1443 1442 1442 1441 1441 1440 1440 1439 1439 1438 1437 1436 1436 1435 1434 1433 1432 1431 1430 1429 1427 1426 1425 1424 1423 1422 1421 1420 1418 1417 1416 1415 1414 1413 1412 1411 1409 1408 1407 1406 1404 1403 1402 1401 1400
1464 1463 1462 1461 1460 1458 1457 1456 1455 1454 1453 1452 1451 1450 1449 1449 1448 1447 1446 1445 1444 1444 1443 1442 1442 1441 1441 1440 1440 1439 1438 1438 1437 1436 1436 1435 1434 1433 1432 1431 1430 1429 1427 1426 1425 1424 1423 1422 1421 1420 1419 1417 1416 1415 1414 1413 1412 1411 1409 1408 1407 1406 1404 1403 1401 1400 1399 1398 1397
1462 1461 1460 1459 1458 1457 1456 1456 1455 1453 1452 1451 1451 1450 1449 1448 1447 1446 1445 1444 1443 1442 1442 1441 1441 1440 1439 1439 1438 1437 1437 1436 1435 1435 1434 1433 1431 1431 1430 1429 1428 1426 1425 1424 1423 1422 1421 1420 1419 1417 1416 1415 1414 1413 1412 1411 1409 1408 1407 1405 1404 1403 1401 1400 1399 1398 1397 1396 1395
1461 1460 1459 1459 1458 1457 1456 1455 1454 1453 1452 1451 1450 1449 1448 1447 1446 1445 1444 1443 1442 1441 1441 1440 1439 1439 1438 1437 1436 1436 1435 1434 1433 1432 1431 1431 1429 1428 1427 1426 1425 1424 1423 1422 1421 1420 1419 1417 1416 1415 1414 1413 1412 1411 1409 1408 1407 1405 1404 1403 1401 1400 1399 1398 1396 1396 1394 1394 1393
1460 1459 1458 1458 1457 1456 1455 1454 1453 1452 1451 1450 1449 1448 1447 1446 1445 1444 1443 1442 1441 1440 1440 1439 1438 1437 1436 1436 1435 1434 1433 1432 1431 1431 1429 1428 1427 1426 1425 1424 1423 1422 1421 1420 1419 1418 1416 1416 1414 1413 1412 1411 1410 1408 1407 1406 1404 1403 1401 1400 1399 1397 1396 1395 1394 1393 1392 1391 1391
1459 1458 1457 1456 1456 1454 1453 1452 1452 1451 1450 1449 1448 1447 1446 1446 1445 1443 1442 1441 1440 1439 1439 1438 1437 1436 1435 1434 1433 1432 1431 1430 1429 1428 1427 1426 1425 1424 1423 1422 1421 1421 1419 1418 1417 1416 1415 1413 1412 1411 1410 1408 1407 1406 1404 1403 1401 1400 1399 1397 1396 1395 1394 1393 1392 1391 1390 1390 1389
1458 1457 1456 1455 1454 1454 1453 1452 1451 1451 1450 1449 1448 1447 1446 1446 1444 1443 1442 1441 1440 1438 1437 1436 1436 1435 1434 1432 1431 1431 1430 1428 1427 1426 1425 1424 1423 1422 1421 1420 1420 1419 1418 1416 1415 1414 1413 1411 1410 1409 1407 1406 1405 1403 1402 1401 1399 1398 1396 1395 1394 1393 1392 1391 1390 1389 1389 1388 1387
1457 1456 1456 1455 1454 1453 1453 1452 1451 1451 1450 1449 1448 1447 1446 1445 1444 1442 1441 1440 1439 1437 1436 1435 1434 1433 1432 1431 1430 1429 1428 1427 1426 1425 1424 1423 1421 1421 1419 1418 1417 1417 1416 1415 1413 1412 1411 1409 1408 1407 1406 1404 1402 1401 1400 1398 1397 1396 1394 1393 1392 1391 1390 1389 1388 1387 1387 1386 1386
1457 1456 1455 1455 1454 1453 1453 1452 1451 1451 1450 1449 1447 1446 1445 1444 1443 1441 1440 1439 1437 1436 1435 1434 1433 1431 1430 1429 1428 1427 1427 1426 1425 1423 1422 1421 1420 1419 1418 1417 1416 1415 1414 1413 1411 1410 1409 1407 1406 1405 1404 1402 1401 1399 1398 1396 1395 1394 1392 1391 1390 1389 1388 1387 1386 1386 1385 1384 1384
1456 1456 1455 1455 1454 1453 1452 1452 1451 1450 1449 1448 1446 1446 1444 1443 1442 1440 1439 1437 1436 1435 1433 1432 1431 1430 1429 1428 1427 1426 1425 1424 1423 1422 1421 1420 1419 1417 1416 1415 1414 1413 1412 1411 1410 1408 1407 1406 1404 1403 1402 1400 1399 1397 1396 1395 1393 1392 1391 1389 1388 1387 1386 1385 1384 1383 1382 1381 1381
1456 1456 1455 1454 1454 1453 1452 1451 1450 1449 1448 1447 1446 1444 1443 1442 1440 1439 1437 1436 1435 1433 1432 1431 1430 1429 1428 1426 1426 1425 1424 1423 1422 1421 1420 1419 1417 1416 1415 1413 1412 1411 1410 1409 1408 1406 1405 1404 1402 1401 1400 1398 1397 1396 1395 1393 1392 1390 1389 1388 1387 1386 1384 1383 1382 1381 1380 1379 1379
Wind_Speed
29 31 32 34 35 36 37 37 36 35 34 34 33 32 31 30 29 29 28 29 29 29 28 27 25 23 23 22 21 19 17 14 12 11 9 9 10 11 12 14 15 16 16 16 16 16 15 14 13 12 12 12 11 12 12 12 12 12 13 15 16 17 18 19 20 22 23 24 25
31 33 34 35 36 37 38 37 36 35 34 33 31 30 29 28 27 27 27 27 27 26 25 23 22 20 19 17 16 14 12 10 9 9 9 10 10 11 12 12 12 12 12 13 12 12 13 12 12 11 11 11 11 12 13 14 14 16 18 19 18 17 16 17 19 21 22 23 22
34 35 36 37 37 38 38 37 36 34 32 31 30 29 27 26 26 26 26 26 25 23 21 19 17 16 15 13 12 12 10 9 9 8 8 9 9 9 8 9 8 8 10 11 10 11 12 12 12 12 12 12 13 15 17 18 19 19 19 17 15 13 11 11 13 15 17 18 17
35 36 37 37 38 37 37 36 34 33 31 29 28 27 26 25 25 25 24 23 22 20 17 15 14 13 13 12 12 11 10 9 8 7 7 7 6 6 7 8 8 9 10 11 12 13 14 15 16 16 17 17 18 20 22 22 21 18 16 14 12 11 9 9 8 9 10 11 12
36 37 37 37 37 37 36 35 33 32 30 29 27 26 25 24 24 23 22 20 18 16 15 14 14 13 13 13 11 10 9 8 7 6 6 6 7 8 9 10 11 13 14 15 16 17 18 19 20 21 22 22 22 22 21 20 18 16 15 13 13 12 12 11 11 11 10 11 11
36 37 37 37 37 36 35 34 33 31 30 28 27 25 24 23 22 20 19 17 16 16 16 16 16 15 14 13 11 9 8 7 7 7 7 8 9 10 11 13 14 16 17 19 20 21 22 23 23 23 23 22 21 20 19 18 17 16 16 16 15 15 16 15 15 15 15 15 15
36 36 36 37 36 35 34 33 32 31 30 28 25 24 22 21 19 18 17 17 17 17 17 17 16 15 13 11 10 9 8 8 8 9 9 10 11 13 15 16 18 19 21 22 22 23 23 23 22 21 21 20 18 18 17 17 18 18 18 18 18 18 18 18 17 17 17 17 17
36 36 36 36 35 34 33 32 31 30 28 26 24 21 20 19 18 18 18 19 18 17 16 16 14 13 11 10 9 9 9 10 10 11 12 13 14 16 17 19 21 22 23 23 22 21 21 20 19 18 17 17 17 17 17 17 18 18 18 18 18 18 17 17 17 17 16 16 16
36 36 36 35 34 33 32 31 30 28 26 24 21 20 19 19 19 20 20 20 19 17 15 14 12 11 10 10 10 10 11 12 13 14 15 16 18 19 21 22 23 23 22 21 20 18 17 16 16 15 15 15 15 16 16 16 17 17 17 17 17 17 16 16 16 16 16 16 16
35 35 35 34 33 32 31 30 27 25 23 22 20 20 20 20 21 21 20 19 18 16 13 12 11 10 10 11 12 13 14 16 16 18 19 20 22 24 25 24 23 21 19 17 16 15 15 14 14 14 14 14 15 15 15 15 16 16 16 16 16 16 16 16 16 17 17 17 18
34 34 34 32 31 30 29 28 25 23 22 22 21 21 21 21 20 20 19 17 16 14 12 11 11 12 13 14 15 17 18 19 20 22 23 24 25 25 23 21 19 16 15 13 13 13 13 13 14 14 15 15 15 15 15 16 16 16 17 17 17 17 17 18 18 19 20 21 22
34 34 33 31 29 28 27 25 23 22 21 21 21 21 20 19 18 18 18 17 15 14 13 13 14 15 16 18 19 20 21 22 23 24 24 23 21 19 16 14 12 11 11 11 11 12 13 14 15 15 16 16 17 17 17 17 18 18 18 18 19 19 20 20 21 22 23 24 25
34 33 32 30 28 26 25 23 23 22 21 21 20 19 18 17 17 17 17 17 16 16 15 16 16 17 19 20 21 22 22 23 23 21 19 17 13 11 9 9 9 9 10 11 12 13 14 15 16 17 18 18 19 19 19 19 19 19 20 20 21 21 22 22 23 24 25 26 27
33 32 31 28 26 25 23 22 22 21 20 19 19 18 18 18 18 18 18 18 18 18 18 18 19 19 20 20 20 20 20 20 18 16 13 10 8 7 7 8 9 10 12 12 13 14 15 17 18 19 19 20 20 20 21 21 21 21 21 22 22 23 24 24 25 26 26 27 28
33 32 30 28 26 24 23 22 20 19 19 18 18 19 19 19 19 19 19 20 20 20 20 20 20 20 20 20 19 18 17 16 14 11 9 8 8 8 9 10 11 12 13 14 15 16 17 18 19 20 20 21 21 22 22 22 22 23 23 24 24 25 26 27 27 28 28 29 30
32 31 29 27 26 24 22 20 19 19 18 19 19 20 20 20 20 20 20 20 21 21 21 20 20 20 20 19 18 17 15 13 11 10 10 10 10 11 12 12 13 14 15 16 16 17 18 18 19 20 21 21 22 22 23 23 24 24 25 26 26 27 28 28 29 29 30 30 30
31 29 27 25 24 22 21 19 19 19 19 20 20 21 21 21 20 20 20 20 21 21 20 19 19 19 19 19 17 16 14 13 12 12 12 13 13 13 14 14 15 16 16 17 18 18 18 19 19 20 21 21 22 23 23 24 25 25 26 27 28 29 29 30 30 30 30 30 31
30 28 26 24 22 21 20 19 19 20 20 20 21 21 21 20 20 20 20 20 20 20 19 18 18 19 19 18 17 16 15 14 14 14 15 15 15 16 16 16 17 17 18 18 19 19 20 20 20 21 21 22 22 23 24 25 25 26 27 28 29 30 30 30 30 30 31 31 31
29 27 25 24 22 21 21 20 20 21 21 21 21 21 20 20 20 20 19 19 19 19 19 18 18 19 19 19 17 16 15 15 16 16 16 17 17 18 18 18 18 19 19 20 20 21 21 21 21 22 22 23 24 24 25 26 27 28 29 29 30 30 31 31 31 31 31 31 31
28 27 26 25 23 22 22 21 21 21 21 21 20 20 20 20 19 19 18 18 18 19 19 19 19 20 20 19 18 17 16 17 17 18 18 19 19 19 19 20 20 20 21 21 22 22 22 23 23 23 24 24 25 26 27 28 29 30 30 31 31 31 32 32 32 32 32 32 32
28 27 26 25 24 23 22 22 22 21 21 20 19 19 19 19 18 17 17 17 19 20 21 21 21 21 21 20 19 18 18 18 19 19 19 20 20 20 21 21 21 22 22 23 23 23 24 24 24 25 25 26 27 28 29 30 31 31 32 32 32 32 32 32 32 32 32 32 32
28 26 25 24 24 23 23 22 21 20 19 18 18 18 19 18 18 17 18 19 20 22 23 24 24 23 22 21 20 19 19 19 20 20 20 20 20 21 22 22 23 23 24 24 24 25 25 25 25 26 27 28 29 30 31 31 32 32 33 33 33 33 33 33 33 33 33 33 33
27 25 24 24 24 24 23 22 20 19 18 18 19 19 20 19 18 18 19 21 22 24 26 26 26 24 23 21 21 20 20 20 20 20 20 21 21 22 23 23 24 24 25 25 25 25 26 26 27 28 29 30 30 31 32 32 32 33 33 33 33 33 33 33 33 33 33 33 33
26 25 24 24 24 24 23 22 20 19 19 20 21 21 21 20 20 20 21 23 24 25 26 26 24 22 21 20 20 19 19 19 19 20 20 21 22 23 23 24 25 25 26 26 26 26 26 27 28 29 30 31 32 32 32 32 32 32 33 33 33 33 33 34 34 33 33 33 33
25 25 24 24 24 24 23 22 21 22 23 24 23 22 21 21 21 22 23 24 24 25 24 23 21 18 17 17 17 17 18 18 19 20 21 22 23 23 24 25 25 25 26 26 26 26 27 29 30 31 32 32 33 33 33 32 32 32 32 32 33 33 34 34 34 34 34 34 33
24 24 24 24 23 23 22 22 22 23 24 24 23 22 21 21 22 22 22 22 22 22 20 19 16 15 15 15 15 16 17 18 19 21 22 23 24 24 25 25 25 25 26 26 27 28 29 30 31 32 33 33 33 33 33 32 32 32 32 32 33 33 34 34 34 35 34 34 34
24 23 22 22 21 20 20 21 22 22 22 22 21 21 21 21 21 21 20 19 18 17 16 15 14 13 14 14 15 16 18 19 21 22 23 24 25 25 25 26 26 26 27 28 29 30 31 32 33 33 33 33 33 33 32 32 32 32 32 33 33 33 34 34 35 35 35 36 36
23 22 21 20 19 18 19 20 21 21 21 21 20 20 19 19 18 17 16 15 14 13 12 12 12 12 13 14 16 17 19 20 22 23 24 25 25 26 26 27 27 28 29 30 31 32 33 33 33 33 33 33 32 32 32 32 32 33 33 33 33 34 34 35 35 36 37 37 37
24 23 22 20 19 19 19 20 20 20 20 20 19 18 18 17 15 14 13 13 12 11 11 11 12 13 14 16 17 19 20 22 23 24 25 26 26 27 28 28 29 30 31 32 32 33 33 33 33 33 32 32 32 32 32 32 33 33 33 34 34 35 35 36 37 37 38 38 39
24 23 23 21 20 19 19 19 18 18 18 17 16 16 15 14 13 12 11 11 11 11 12 13 14 15 17 18 20 21 22 23 24 25 26 27 28 29 29 30 31 31 32 33 33 33 33 33 33 33 32 32 32 32 32 33 33 34 34 35 35 36 36 37 38 38 38 38 38
25 25 25 23 21 19 17 16 15 14 13 12 12 12 12 12 12 13 14 15 16 17 18 19 20 21 22 23 23 24 25 25 26 27 28 29 29 30 30 31 32 32 32 33 33 33 33 33 32 32 32 32 32 32 32 33 33 34 35 35 36 37 37 37 38 38 38 38 37
25 25 25 22 19 17 15 13 12 12 12 12 13 14 15 16 17 19 20 22 23 24 25 26 26 26 27 27 27 26 26 27 27 28 29 30 30 31 31 32 32 32 32 32 32 32 32 32 32 32 32 32 32 32 33 33 34 35 35 36 36 37 37 37 37 37 36 36 35
23 22 20 18 16 14 14 14 15 16 18 19 20 20 21 22 23 25 26 27 28 28 29 29 29 29 28 28 28 27 27 27 28 29 29 30 30 31 31 32 31 31 31 31 31 31 31 31 32 32 32 32 32 33 33 34 34 35 36 36 37 36 36 36 35 35 34 33 32
20 18 17 16 16 17 18 20 21 22 23 24 25 26 26 27 28 28 28 29 29 29 29 29 28 28 27 27 27 27 27 27 28 29 29 30 30 31 31 31 30 30 30 30 31 31 31 31 32 32 32 33 33 33 34 34 35 35 36 36 36 35 35 34 33 33 32 31 29
18 17 18 19 20 21 22 24 25 25 26 26 26 26 27 27 27 28 28 28 28 28 27 27 26 26 26 25 26 26 27 28 28 29 29 30 30 30 30 30 30 30 30 30 30 31 31 32 32 32 32 33 33 34 34 34 35 35 35 35 34 34 33 32 31 30 29 28 27
19 19 20 21 22 23 23 24 24 24 24 24 24 24 25 25 25 26 26 26 26 26 26 26 25 25 26 26 27 28 28 29 30 30 30 30 30 30 30 30 29 29 29 30 30 31 31 32 32 32 33 33 33 34 34 34 34 34 34 33 32 32 31 30 29 29 28 26 25
20 20 20 21 21 21 22 22 22 22 22 22 23 23 24 24 25 25 26 26 27 27 27 27 27 27 28 29 29 30 30 30 30 30 30 29 29 29 29 29 29 29 30 30 30 31 31 32 32 32 32 33 33 33 33 33 33 32 32 31 30 30 29 29 28 27 27 26 25
19 19 19 19 19 19 19 19 20 21 21 22 23 24 25 25 26 26 27 28 28 28 29 29 29 29 30 30 30 30 30 29 29 29 29 29 29 29 29 29 30 30 30 30 30 31 31 31 31 32 32 32 32 32 31 31 30 30 29 29 29 29 29 28 28 28 27 27 26
18 18 18 18 18 18 19 19 20 21 22 24 25 26 26 27 28 28 28 29 29 29 30 30 30 30 30 30 30 29 29 29 28 28 28 28 28 29 29 30 30 30 30 30 30 30 30 31 31 31 31 30 30 29 28 28 28 28 28 28 28 29 29 28 28 28 28 27 26
17 16 16 17 18 18 19 20 21 23 24 25 26 27 28 28 29 29 29 30 30 30 30 30 30 30 29 29 29 29 28 28 28 28 28 28 28 29 29 30 30 30 30 30 30 30 30 30 30 30 29 28 27 26 25 25 26 26 27 27 28 28 29 28 28 27 27 26 25
15 15 16 17 18 19 20 21 22 23 24 26 27 28 28 29 30 30 30 30 31 31 30 30 30 29 29 29 28 28 28 27 27 27 28 28 29 29 29 30 30 30 30 29 29 29 30 30 29 29 27 26 24 23 23 23 24 25 27 28 28 28 28 27 26 26 25 24 24
Wind_Direction
328 331 334 336 338 338 339 338 337 336 334 334 333 332 332 331 330 329 327 325 323 321 320 318 317 315 314 313 311 308 304 298 289 277 261 243 228 219 213 209 205 204 204 206 208 209 211 213 216 222 227 231 240 246 251 257 267 277 285 291 293 293 290 287 283 280 278 276 275
333 335 337 338 337 337 336 336 335 334 333 332 331 331 330 330 329 328 326 324 322 320 319 317 315 313 312 308 306 302 297 286 273 258 243 229 219 213 208 205 206 210 213 214 217 221 224 227 233 239 246 252 260 268 276 284 290 295 299 301 302 299 292 281 274 271 270 269 270
336 336 336 335 334 334 334 334 334 334 333 331 330 329 329 328 328 326 325 323 321 320 318 315 312 309 306 300 295 290 282 272 260 245 232 222 217 216 216 215 225 233 235 235 240 247 251 251 254 259 266 274 279 288 297 302 304 307 310 312 313 312 303 288 277 272 271 271 272
335 334 333 332 332 332 333 334 335 334 333 331 329 328 327 327 326 325 323 322 320 318 315 311 306 300 293 287 281 276 269 260 250 240 232 228 229 237 244 248 258 262 263 266 272 276 276 274 274 277 282 287 291 296 302 308 313 319 325 329 330 330 325 316 303 291 282 278 277
332 331 331 331 331 332 334 335 335 334 332 330 328 326 326 325 325 323 323 321 319 315 310 304 295 287 280 275 271 266 260 252 248 247 247 250 257 264 270 274 274 276 281 287 289 290 289 288 289 290 292 293 295 299 305 312 320 327 332 334 335 334 331 328 324 319 312 305 300
331 330 331 332 332 333 334 335 335 333 331 329 326 325 324 324 324 323 321 318 314 309 302 296 288 281 275 269 263 260 259 256 256 258 263 268 275 281 286 289 287 288 292 296 298 299 299 298 298 298 298 300 302 307 313 320 326 330 333 334 333 332 331 328 325 322 319 316 314
331 331 332 333 333 333 334 334 333 332 330 327 325 324 323 323 322 320 317 314 309 303 298 292 285 279 272 266 262 262 266 268 270 273 277 283 290 293 296 298 300 302 304 306 307 307 306 306 305 305 306 309 314 321 326 331 334 335 335 334 333 331 329 327 324 321 318 316 314
331 332 333 333 333 332 333 332 332 330 328 326 324 322 321 321 319 317 314 311 305 299 294 289 282 275 270 267 267 270 276 279 283 286 290 293 297 299 302 304 306 308 310 311 313 313 313 313 313 315 318 322 326 331 334 335 334 333 332 330 328 326 324 321 318 315 312 309 306
332 333 333 333 332 331 331 331 330 328 326 324 321 319 319 317 316 314 311 306 301 295 288 282 278 274 272 273 276 282 287 289 289 292 296 298 300 303 305 307 309 310 313 315 318 320 322 324 326 329 331 332 332 332 331 330 327 325 323 321 320 318 315 312 310 307 304 302 299
331 332 332 332 331 330 330 329 327 325 323 320 318 316 315 314 313 311 307 301 296 289 283 278 277 277 280 284 288 291 294 295 296 298 300 301 302 304 305 307 309 313 318 323 329 333 335 337 337 336 334 332 329 327 324 321 319 316 315 315 314 312 310 307 306 304 302 300 298
330 331 332 331 330 329 328 327 324 322 319 317 314 313 312 311 310 308 303 297 289 282 279 280 283 286 289 293 294 297 299 301 302 303 303 303 303 304 306 309 314 321 330 337 340 341 338 335 331 328 325 323 321 319 317 315 313 311 310 309 308 306 305 303 302 301 299 298 298
329 330 331 330 329 327 326 324 321 318 316 313 311 310 308 307 306 304 300 293 284 279 280 286 290 293 296 299 301 303 305 306 306 305 304 304 305 308 314 322 330 337 340 338 334 329 325 321 319 317 315 314 313 312 311 309 308 307 305 304 302 300 299 298 297 297 296 296 295
328 329 329 329 327 325 323 321 319 317 314 311 308 306 305 303 301 299 296 291 285 282 284 289 294 299 304 307 308 308 308 306 305 305 305 307 313 322 331 336 335 331 326 321 318 315 313 312 310 309 308 308 307 306 306 305 304 303 301 300 298 297 296 296 295 295 295 295 295
327 328 328 327 326 324 322 319 317 314 311 307 305 303 301 300 298 296 294 291 288 287 288 292 298 304 309 312 312 310 307 305 303 304 307 314 322 327 326 320 316 313 312 311 309 308 307 306 305 304 303 303 302 301 301 300 300 299 298 297 296 296 296 295 295 295 295 296 295
326 327 327 326 325 323 321 318 314 310 306 302 301 300 299 297 295 294 294 292 291 291 292 296 302 308 311 312 311 307 303 301 301 303 307 312 312 310 308 307 307 306 306 305 305 304 303 302 301 300 299 298 298 297 297 297 296 296 295 295 296 296 296 296 296 296 296 296 296
325 326 325 324 323 321 318 314 310 306 302 299 298 297 295 294 294 294 293 293 292 291 292 296 303 309 311 310 307 302 298 297 297 300 301 302 300 299 299 300 300 300 300 300 300 300 299 299 298 297 296 296 295 295 295 294 294 294 295 295 296 297 297 297 297 297 297 296 296
324 323 322 320 318 316 312 308 304 301 299 297 294 293 292 292 292 292 292 291 289 289 290 295 302 307 309 307 302 297 294 293 294 295 295 294 294 293 293 293 294 294 294 295 296 297 297 297 296 295 294 294 294 293 293 294 294 295 295 296 297 298 298 298 298 297 297 296 296
321 320 319 316 313 310 307 303 300 298 296 293 291 290 289 289 290 290 289 287 286 286 288 295 301 306 307 304 298 293 291 291 291 291 291 290 290 289 289 289 289 290 291 293 294 296 296 296 296 295 294 294 294 294 294 294 295 295 296 297 298 298 298 298 297 297 296 296 295
319 318 316 314 310 307 304 301 299 296 293 290 288 287 288 288 289 287 285 284 284 285 288 295 301 305 305 301 295 290 288 288 288 289 289 289 288 288 287 287 287 289 291 293 295 296 297 297 297 296 295 295 294 294 295 295 295 296 297 297 298 298 298 297 297 296 296 295 295
318 317 315 313 310 307 304 300 297 294 290 287 285 285 286 287 286 284 281 282 284 287 290 295 300 303 302 298 292 287 285 285 285 286 287 287 287 287 287 287 288 290 292 294 296 297 298 299 298 297 297 296 296 295 295 295 296 296 297 297 297 298 297 297 297 296 296 295 295
318 317 315 313 310 307 304 300 296 291 287 284 282 282 283 283 282 280 280 283 286 290 293 295 298 300 299 295 288 282 280 281 282 284 286 287 287 287 287 288 289 291 293 295 297 298 299 299 299 298 297 297 297 296 296 296 297 297 297 298 298 298 298 298 297 297 296 296 295
318 317 315 313 310 307 303 298 293 288 284 280 279 278 278 277 276 277 280 284 288 292 294 295 296 296 295 290 284 278 277 278 280 283 285 287 287 287 288 289 290 292 294 296 297 298 298 299 298 298 298 297 297 297 297 297 298 298 298 299 299 299 299 299 298 298 297 297 296
317 316 315 312 309 305 300 295 289 284 280 277 276 276 275 273 272 274 278 283 288 291 293 293 294 293 291 286 281 277 276 277 280 283 285 287 287 287 288 290 292 294 295 297 298 298 298 298 298 298 298 298 298 298 298 299 299 299 300 300 300 300 300 299 299 298 298 297 296
316 316 314 312 308 304 297 291 285 281 279 279 279 278 276 272 271 273 278 283 287 291 292 293 293 291 287 282 279 278 278 280 283 285 286 287 288 289 291 293 295 296 297 298 298 298 298 298 298 298 298 299 299 299 300 300 301 301 301 301 301 301 301 300 300 299 298 297 297
315 315 314 311 306 301 295 289 286 285 286 286 285 282 277 274 274 278 282 287 291 293 294 294 292 289 285 282 281 282 284 286 289 290 290 291 292 294 296 297 298 298 298 297 297 297 298 298 299 300 300 301 301 301 302 302 302 303 303 303 303 303 302 301 300 299 298 298 297
314 314 312 309 304 299 295 291 290 290 291 290 287 284 281 281 284 288 292 294 295 295 295 294 292 289 287 287 288 290 292 294 295 297 298 299 299 299 299 299 298 298 297 297 297 298 299 300 301 301 302 302 303 303 304 304 304 305 305 304 304 303 303 302 301 300 299 298 297
312 311 309 306 302 298 295 293 291 290 289 288 287 286 288 291 294 296 297 296 295 294 293 292 292 292 293 294 295 296 298 299 300 302 303 303 301 300 299 298 298 298 298 298 299 300 301 301 302 303 303 303 304 305 305 306 306 306 306 305 304 303 302 302 301 300 299 298 298
308 307 304 301 296 292 289 286 285 285 285 286 287 290 293 295 295 294 291 288 286 285 286 288 291 294 297 298 298 299 300 301 303 304 303 301 299 298 298 298 298 299 299 300 301 301 302 302 303 303 304 305 305 306 306 307 307 306 305 305 304 303 302 301 301 300 300 300 299
307 306 303 297 290 285 282 281 281 283 284 286 288 290 290 290 287 284 281 279 278 281 286 291 296 298 300 301 301 302 303 305 305 303 301 299 297 297 298 298 299 299 300 301 302 302 303 303 304 304 305 306 306 307 307 307 306 305 305 304 303 302 302 301 301 301 301 301 300
306 306 303 297 288 282 279 279 281 282 284 285 286 287 287 286 287 289 291 294 299 304 309 311 312 312 311 311 310 310 310 309 306 302 299 297 297 298 298 299 299 300 301 301 302 302 303 304 305 305 306 306 307 307 307 306 306 305 304 303 303 302 302 302 302 301 301 301 301
306 306 303 296 286 279 277 279 283 286 290 293 295 297 300 304 311 317 322 325 327 327 326 326 325 324 322 321 319 316 313 309 304 300 298 297 298 298 299 299 300 301 302 302 303 303 304 305 305 306 306 307 307 306 306 305 305 304 304 303 303 303 302 302 302 302 302 302 302
306 305 301 294 287 283 285 291 301 310 317 321 323 324 324 326 327 328 330 331 332 331 330 329 328 326 324 322 320 316 311 306 302 299 298 298 299 299 300 301 302 303 304 304 305 305 305 306 306 306 306 306 306 306 305 305 304 304 304 303 303 303 303 303 302 302 302 302 302
308 306 303 301 300 304 311 319 326 331 334 335 335 335 334 333 332 332 332 332 331 331 330 328 326 324 322 319 316 312 308 304 301 300 300 300 301 302 303 305 306 306 306 306 306 306 306 307 307 307 307 306 306 306 305 305 305 305 304 304 304 304 304 303 302 302 302 302 303
313 314 317 320 323 326 329 331 333 335 336 337 338 338 338 337 337 335 334 333 331 330 328 326 324 321 318 315 311 308 305 303 302 303 304 305 306 307 308 308 308 308 308 308 307 307 307 307 307 307 307 307 307 307 306 306 306 306 306 305 305 305 304 303 302 302 302 303 304
324 328 332 334 335 336 337 338 339 341 342 343 343 343 342 341 339 337 335 332 330 328 326 323 320 317 314 311 309 308 307 307 308 309 310 310 310 310 310 310 310 309 309 309 308 308 308 308 308 308 308 308 308 308 308 308 308 307 307 306 306 305 304 302 302 302 303 303 304
334 338 340 343 345 346 348 349 350 350 350 349 348 346 344 341 339 336 333 331 328 326 323 321 319 316 315 313 312 312 313 313 314 314 314 314 313 312 311 311 310 310 310 309 309 309 309 309 309 309 309 309 309 310 310 309 309 308 307 306 305 304 303 302 302 302 303 304 304
341 345 348 352 354 355 356 356 355 354 352 350 348 345 343 340 338 335 333 330 328 326 324 322 320 318 317 316 316 316 317 317 317 317 316 315 314 313 312 311 311 310 310 310 310 310 310 310 310 310 311 311 311 311 311 310 309 308 307 305 304 302 301 301 301 302 302 303 303
348 353 356 357 357 357 355 353 351 349 347 346 344 342 341 339 338 336 334 332 329 327 325 323 322 321 320 319 319 319 319 319 319 318 317 316 314 313 313 312 311 311 311 311 311 311 311 311 311 311 312 312 312 312 311 310 309 307 305 304 302 301 300 301 301 302 302 302 303
354 357 358 356 353 350 348 346 345 343 342 341 340 340 339 338 337 335 334 332 330 328 326 325 323 323 322 321 320 320 320 320 319 318 317 316 315 314 313 313 312 312 312 312 312 312 312 312 312 312 312 312 312 311 310 309 307 305 304 303 303 302 302 303 303 303 303 303 304
356 356 353 349 346 344 342 341 341 340 340 339 338 338 337 336 335 334 333 331 330 328 327 326 325 324 323 322 322 321 321 320 319 318 317 316 315 314 314 314 314 314 313 313 313 313 313 313 313 313 313 312 311 311 309 308 306 305 304 305 306 306 307 307 307 307 308 308 309
352 350 346 342 340 339 339 338 338 338 338 338 337 337 336 336 335 333 332 331 329 328 327 326 326 325 324 324 323 322 321 320 319 317 316 316 315 315 315 315 315 315 315 315 315 315 315 314 314 314 313 312 311 310 308 307 306 306 307 308 310 311 311 312 313 313 315 316 316